Location: Unspecified
(0.0000°N, 0.0000°E)
Time: 23:55:48
(UTC+00:00)

Courier 1B Rocket - Pass Details

Date: 01 October 2020
Orbit: 920 x 1202 km, 28.2° (Epoch: 28 October)

Event Time Altitude Azimuth Distance (km) Brightness Sun altitude
Rises 10:44:26 0° 328° (NNW) 3,559 7.8 73.4°
Reaches altitude 10° 10:48:15 10° 351° (N) 2,648 7.4 74.3°
Maximum altitude 10:51:49 15° 26° (NNE) 2,321 7.3 75.2°
Drops below altitude 10° 10:55:29 10° 60° (ENE) 2,737 7.7 76.1°
Sets 10:59:31 0° 82° (E) 3,749 8.2 77.0°
